GFSMA_850_rhum_009.txt.gz
RH
42 42 40 40 43 52 55 56 55 54 61 60 60 61 61 59 57 54 47 37 32 35 36 31 23 23 22 22 21 23 36 59 64 68 78 75 77 78 66 75 76 80 78
34 39 38 39 48 58 60 60 59 56 62 62 60 60 60 61 59 57 55 49 45 38 32 34 32 26 23 22 22 22 22 22 42 65 71 76 70 61 64 80 76 76 78
52 51 52 53 54 51 51 48 45 55 62 61 63 62 60 59 59 58 58 53 48 47 44 36 32 34 30 24 22 23 23 23 25 41 74 74 78 62 69 82 74 72 75
58 58 59 42 44 46 50 54 54 63 63 70 70 72 68 60 62 58 60 56 51 50 49 48 44 41 36 28 26 25 26 25 24 26 42 73 78 79 73 72 88 74 78
54 58 55 46 47 48 48 58 63 64 66 63 59 45 41 58 61 62 61 63 57 55 52 51 50 48 43 38 36 26 27 27 27 25 24 39 71 79 77 85 85 88 82
54 54 55 52 54 54 49 49 53 53 52 41 51 60 58 52 61 54 53 57 65 64 60 53 51 50 48 45 41 30 29 29 26 26 26 25 28 63 76 88 93 95 88
49 50 52 54 49 49 51 50 48 44 42 50 47 37 34 33 36 32 34 49 57 59 68 67 60 53 55 49 47 45 40 36 30 26 26 26 26 25 32 70 79 77 89
55 57 57 53 49 48 48 47 46 46 32 37 48 58 64 55 49 53 57 58 63 62 65 69 77 72 64 60 53 48 48 43 34 29 26 25 25 26 26 31 66 84 90
44 53 52 50 49 49 49 48 48 46 51 59 62 64 68 71 77 64 56 62 64 70 70 72 78 98 87 77 78 61 55 50 43 32 29 27 25 24 25 27 33 45 73
52 53 52 50 42 40 52 52 51 53 74 74 72 73 85 90 85 81 70 54 47 46 55 70 67 92 100 99 84 84 74 67 47 39 32 30 30 27 27 25 29 30 35
56 55 53 43 40 44 48 58 62 67 72 78 85 89 88 75 74 79 78 68 47 42 39 42 46 54 75 100 95 91 92 82 58 48 43 38 37 34 30 32 28 33 36
60 51 49 54 59 65 74 75 76 77 76 74 71 68 76 84 88 92 97 73 100 61 48 46 59 70 66 91 100 99 96 91 90 64 56 46 41 37 44 42 42 34 32
54 59 63 66 70 71 77 80 79 81 89 89 85 81 90 90 97 91 99 98 94 66 60 61 60 84 88 85 95 100 98 100 98 93 70 56 50 41 40 39 40 77 84
67 71 75 74 62 73 84 94 90 91 96 98 99 90 98 88 99 98 94 98 95 100 93 63 62 61 69 78 95 98 97 99 100 98 91 78 55 52 45 45 44 45 46
73 77 59 51 67 61 68 78 85 80 78 90 97 94 86 97 98 99 100 99 99 100 98 82 67 54 60 72 75 80 99 99 99 98 75 68 73 57 50 60 57 50 45
75 48 48 63 68 67 69 70 66 63 66 70 74 76 81 92 95 90 96 98 98 99 100 88 73 60 60 58 59 77 96 99 99 99 98 72 65 58 51 65 68 62 60
50 60 66 65 60 54 53 52 54 57 62 68 75 86 77 74 77 81 80 82 84 83 96 88 76 65 58 53 50 58 83 92 97 93 91 70 62 61 60 58 60 66 64
64 62 62 57 50 50 50 55 56 58 59 63 68 68 63 54 42 56 72 75 71 71 67 72 78 70 65 61 56 53 52 82 91 97 96 72 63 60 58 55 52 50 51
61 57 50 47 47 50 52 54 56 59 60 60 60 62 60 55 47 43 62 76 77 82 82 79 73 70 68 61 56 52 50 50 64 77 73 66 68 63 58 56 56 54 52
59 49 48 47 47 53 54 58 60 63 65 65 67 73 73 69 63 55 64 74 75 76 77 81 77 67 53 58 59 58 51 59 52 50 53 47 51 53 57 57 55 54 51
54 50 52 47 53 57 59 62 67 72 73 71 76 71 63 57 84 88 92 94 92 96 92 86 76 66 55 51 48 58 69 74 74 76 67 65 62 62 59 59 59 62 58
59 58 50 53 61 65 69 74 80 81 76 71 72 67 58 75 93 97 95 95 94 96 93 90 80 82 82 78 73 63 70 77 76 71 75 70 68 67 65 64 68 69 73
65 54 55 60 65 71 80 92 79 72 82 84 81 74 70 80 83 84 88 93 94 95 96 97 97 93 87 74 68 78 78 82 85 74 76 72 68 66 63 62 63 65 74
56 56 60 63 67 78 72 64 77 86 90 94 83 76 80 88 88 87 84 84 83 79 75 76 71 67 70 70 77 83 93 97 95 87 73 75 61 62 61 61 67 72 75
57 59 60 61 71 72 68 82 88 88 92 86 84 81 83 84 84 90 89 90 88 83 74 81 84 93 98 96 93 96 92 87 75 70 72 88 79 75 65 59 57 59 62
56 60 62 70 69 68 83 96 97 98 98 92 86 83 85 97 97 96 97 94 89 86 92 90 87 83 72 75 81 77 80 97 100 90 64 70 65 71 80 70 61 58 58

GFSMA_850_rhum_015.txt.gz
RH
35 36 44 45 46 47 42 45 45 42 41 43 45 47 49 63 70 70 70 69 66 63 61 59 55 50 44 37 34 34 28 24 24 24 28 46 62 64 74 79 87 81 71
52 51 53 50 50 44 41 40 41 43 47 47 48 50 53 60 69 68 59 57 55 59 60 60 58 55 49 44 43 42 43 37 29 23 23 24 28 55 71 77 86 91 76
59 60 60 58 55 51 48 49 50 49 49 48 50 58 60 62 62 58 47 44 54 64 63 54 63 58 55 55 55 52 51 46 36 28 26 25 25 29 63 81 84 88 90
66 70 67 62 59 58 53 52 51 53 52 43 42 42 40 39 35 38 47 51 54 60 59 55 66 66 63 63 57 54 53 50 49 44 37 27 27 26 34 71 86 89 91
64 59 56 55 52 52 53 54 55 52 49 47 36 30 28 27 26 24 22 24 28 36 38 40 41 45 57 64 60 60 56 53 51 48 47 37 29 28 26 33 75 87 89
52 52 53 52 44 41 46 51 50 48 49 45 40 37 32 25 18 20 37 50 54 53 63 68 66 60 62 64 65 61 58 58 54 50 49 49 40 36 33 28 31 74 88
57 54 45 44 50 49 49 50 49 44 40 35 31 26 20 29 46 35 42 56 53 50 51 51 50 56 65 65 67 72 70 60 58 70 56 60 54 43 42 40 27 28 65
48 44 51 51 55 54 52 50 50 44 33 27 33 40 66 63 63 68 58 66 70 65 60 55 46 41 42 47 59 63 65 70 66 69 66 67 67 65 48 47 31 27 32
53 55 58 58 58 57 58 44 34 36 37 43 63 73 88 82 84 79 74 66 73 62 54 48 48 48 42 38 39 56 60 63 71 68 68 78 66 62 64 50 44 28 30
62 64 63 64 80 75 68 47 48 58 58 68 72 76 76 88 90 91 81 72 68 61 54 49 52 52 48 43 38 34 36 55 69 72 74 66 68 66 56 53 48 30 27
67 67 79 81 56 55 56 64 53 40 56 83 97 99 90 74 100 97 98 97 82 60 51 51 61 62 61 66 76 53 50 57 58 62 80 82 86 78 63 64 48 34 27
68 63 51 59 61 61 69 39 29 39 46 54 64 75 87 97 98 99 98 99 100 99 96 80 65 64 61 62 71 80 83 74 94 98 82 91 99 87 79 62 46 37 35
55 56 64 69 72 49 29 33 43 46 51 51 53 57 71 80 85 88 99 94 99 82 76 92 92 85 75 60 64 70 78 77 76 89 98 100 100 90 76 57 51 76 44
66 66 70 72 37 36 33 38 34 40 45 49 52 55 56 58 78 78 78 80 92 100 85 75 72 95 84 64 62 58 59 63 70 75 84 95 99 99 95 72 62 64 77
72 90 96 76 58 52 49 46 46 50 51 52 53 55 57 60 65 68 65 60 67 98 80 69 80 66 68 82 65 59 56 57 58 56 74 96 91 100 100 100 86 70 84
74 80 86 86 91 70 49 47 46 47 49 49 53 58 62 65 69 67 62 57 53 56 85 78 56 67 64 60 74 69 61 54 54 59 57 80 99 100 100 98 85 70 72
79 81 83 89 86 53 48 48 44 44 52 56 60 66 64 64 67 68 66 63 58 64 62 52 58 73 82 71 57 51 59 62 56 61 53 80 99 99 100 100 100 94 80
69 77 80 94 57 49 49 46 49 54 58 65 67 72 76 80 80 75 65 55 54 57 67 65 52 69 87 80 78 72 54 55 63 60 57 53 95 98 99 99 99 99 97
73 86 96 84 52 50 59 53 55 60 67 75 80 87 82 70 69 68 62 57 56 75 95 99 78 60 82 81 71 67 65 56 47 56 64 58 75 96 98 98 99 99 94
99 80 74 61 56 74 58 58 66 71 77 84 78 67 75 84 82 75 66 71 96 99 96 94 95 93 92 92 85 69 58 52 49 42 64 80 74 86 94 98 98 99 98
100 90 79 62 79 65 61 69 73 79 75 67 74 81 88 88 96 93 94 97 95 90 92 96 92 90 93 95 86 73 66 57 49 41 48 75 83 94 89 96 97 96 98
93 92 83 72 66 66 68 69 70 67 74 79 84 86 89 80 73 90 93 100 100 99 96 96 92 94 96 97 92 83 78 69 65 53 52 56 74 79 90 99 95 94 97
82 88 82 72 69 69 68 69 66 63 64 68 74 78 75 81 90 91 86 94 97 97 95 96 93 90 90 95 99 93 84 80 76 65 68 56 53 65 80 77 77 82 76
80 76 74 70 73 71 71 64 57 52 52 63 70 77 87 96 100 100 96 94 89 84 89 94 97 92 87 83 80 75 74 76 75 69 78 82 61 50 53 63 75 67 70
73 72 78 83 73 74 66 58 50 51 58 65 75 83 97 97 94 97 95 96 97 85 82 81 77 90 97 95 94 95 98 99 100 83 76 90 72 67 59 45 46 49 52
93 95 84 76 78 70 63 50 47 56 68 80 82 83 88 90 95 94 96 98 92 91 94 92 88 86 76 84 94 97 90 88 91 94 83 83 66 80 76 64 51 49 51

GFSMA_850_rhum_021.txt.gz
RH
60 52 47 48 48 50 50 46 45 48 54 52 46 44 40 40 36 40 46 52 56 57 58 58 56 53 42 34 46 48 37 42 47 47 47 39 28 24 27 55 72 82 84
63 61 56 56 58 58 59 54 58 53 46 44 44 43 42 40 35 31 30 29 30 31 35 42 46 51 57 48 41 43 51 44 48 53 51 47 41 29 26 25 35 63 77
66 68 67 68 69 65 60 54 48 46 46 45 44 44 43 42 42 39 37 38 36 30 25 23 25 36 48 53 47 47 56 56 49 54 54 52 50 47 37 27 26 28 60
72 73 72 64 57 57 56 50 49 51 49 48 49 49 49 47 46 45 42 41 40 33 32 31 32 32 30 32 34 34 44 57 57 53 60 56 54 53 50 34 28 27 27
62 59 56 59 58 51 49 53 54 53 53 54 57 59 56 55 53 50 46 43 42 42 40 38 37 39 41 42 42 46 46 37 41 50 59 58 58 55 56 52 42 33 28
57 56 57 54 52 51 55 57 59 61 63 56 42 35 30 21 17 27 40 37 27 32 44 41 36 32 28 29 35 43 49 52 56 51 55 58 65 58 59 61 56 47 38
52 53 56 57 57 60 63 65 68 64 46 32 33 51 48 24 54 47 23 42 55 37 37 41 37 36 31 21 17 16 20 29 35 43 53 58 64 67 67 62 76 61 49
57 60 63 65 66 65 56 51 43 38 36 32 26 53 44 45 71 68 78 58 79 47 64 65 60 60 52 47 38 31 26 22 23 23 23 39 54 68 71 76 71 74 63
66 67 61 49 46 46 50 57 61 58 42 30 22 65 60 51 72 61 72 75 92 89 90 92 91 68 57 52 50 44 41 40 35 31 26 25 27 47 61 72 85 79 73
58 46 38 29 42 59 62 67 69 48 26 32 28 62 72 85 73 66 64 77 82 87 92 93 77 62 65 69 70 59 56 50 48 45 41 38 33 28 38 50 72 77 77
37 40 42 37 39 48 69 70 60 33 28 26 50 67 75 82 81 85 75 66 71 72 85 84 82 86 80 96 95 81 70 61 61 63 68 62 55 56 36 46 53 73 83
40 41 55 70 65 64 73 71 56 55 48 34 50 66 68 71 70 73 71 68 67 69 66 77 87 75 73 75 85 91 68 65 65 69 71 73 69 61 78 50 49 65 83
43 34 39 73 85 76 91 78 75 65 42 40 44 60 56 71 74 74 73 68 78 67 72 74 79 80 70 72 80 59 77 63 69 72 66 67 62 57 61 73 60 82 90
27 35 46 72 78 76 75 90 70 51 48 46 46 50 53 68 57 68 84 89 82 72 65 67 70 77 78 77 75 40 65 75 69 63 60 60 54 47 46 72 74 86 94
25 24 48 84 84 71 82 87 68 59 50 48 49 53 56 57 64 68 73 82 97 95 79 65 67 67 72 75 79 83 83 78 58 72 70 59 56 52 42 56 74 79 91
27 27 34 80 82 79 84 90 76 59 51 58 54 57 62 66 72 74 76 91 100 98 88 68 63 67 72 72 79 85 80 71 64 57 52 58 62 59 51 44 70 83 77
39 34 43 75 86 85 96 91 81 55 62 60 58 63 70 74 83 98 98 93 87 84 80 70 72 73 79 84 84 85 75 79 82 77 66 56 55 52 52 46 60 88 91
46 41 48 74 80 85 97 78 60 66 70 65 64 69 76 90 90 98 96 94 92 89 89 80 74 77 86 87 88 91 86 81 73 78 72 69 58 51 50 48 47 72 99
50 52 68 83 99 98 96 60 65 76 69 69 72 74 71 85 94 94 95 94 94 95 93 90 87 86 83 82 97 91 88 88 82 83 71 65 59 48 49 51 42 64 95
57 61 73 96 97 94 94 75 78 71 70 70 67 63 51 51 81 96 99 98 96 100 100 96 92 87 87 85 91 92 88 81 78 77 76 66 56 47 53 58 50 80 96
67 71 73 78 88 99 97 91 72 74 68 67 53 39 40 50 57 77 100 100 100 100 98 96 88 81 80 81 85 85 96 99 92 88 82 77 76 88 66 85 98 93 94
71 85 83 82 85 83 78 77 74 70 67 50 37 41 52 61 98 98 81 96 100 100 100 98 92 94 92 90 91 89 100 99 87 88 88 80 82 82 100 91 100 91 96
70 79 85 79 87 83 84 77 72 63 50 37 44 53 86 100 100 100 100 99 98 94 96 100 100 94 89 87 94 99 97 100 100 96 98 86 96 91 91 97 95 100 90
70 78 80 86 89 91 81 78 65 55 41 42 50 72 100 100 100 100 98 100 100 99 98 100 100 100 98 99 98 99 98 98 99 100 100 97 92 98 87 53 88 97 94
76 82 80 85 92 82 84 72 61 48 42 46 55 98 100 100 100 99 100 100 100 99 98 97 95 96 91 92 97 100 100 100 96 79 81 100 100 100 100 79 56 85 97
79 81 85 93 87 88 80 67 59 53 46 52 74 61 70 91 100 100 100 100 100 100 100 100 100 100 98 96 96 98 100 100 95 97 90 100 93 95 88 74 58 53 72

GFSMA_850_rhum_027.txt.gz
RH
72 83 82 74 74 70 69 70 68 69 64 61 64 61 63 62 59 57 56 51 50 49 48 45 39 37 31 28 32 38 40 40 46 48 51 48 50 48 42 28 25 44 74
64 74 74 74 78 78 81 77 74 68 63 61 59 58 60 59 55 56 56 57 56 56 57 57 53 47 42 40 36 34 39 44 39 41 43 53 50 50 51 49 33 26 27
74 68 73 82 86 72 57 57 58 64 62 59 60 57 58 53 50 52 56 50 57 62 63 62 59 55 51 44 42 42 44 45 40 35 37 50 60 54 52 51 53 45 30
70 76 82 78 65 61 69 70 66 67 67 66 64 62 58 46 41 49 43 36 53 65 66 64 64 60 48 37 37 32 32 32 31 38 47 41 33 53 61 57 53 51 49
75 74 66 62 60 72 73 76 77 78 73 70 55 48 51 38 41 39 44 44 61 64 62 61 64 66 62 62 62 69 72 91 85 72 60 64 58 37 39 54 61 58 53
62 73 78 60 66 76 77 84 86 75 66 55 48 52 54 45 41 44 55 56 56 58 62 67 67 62 61 63 69 78 90 95 95 99 96 88 85 86 39 44 54 64 63
62 62 72 78 81 78 76 80 76 66 55 51 51 53 52 42 37 36 38 55 56 53 56 62 65 65 63 65 70 76 90 91 100 97 97 95 84 83 74 36 46 61 69
68 69 70 77 74 70 62 56 66 68 60 56 54 50 49 43 38 40 46 47 48 48 55 56 63 63 69 65 67 68 88 95 83 78 51 51 92 92 85 90 44 45 62
71 72 73 70 67 63 58 62 66 72 63 61 59 53 50 46 48 44 45 44 46 55 55 52 54 57 64 64 64 69 79 68 71 71 77 88 91 91 92 93 94 89 67
70 62 60 68 71 71 72 70 62 71 72 63 60 56 55 52 49 46 45 46 46 42 41 44 48 51 52 52 57 59 68 79 76 67 71 97 99 98 95 93 95 96 92
56 59 62 66 76 74 73 74 76 76 75 72 72 58 50 48 48 50 58 50 46 41 40 42 44 49 48 49 52 51 56 54 61 60 62 90 98 100 100 99 98 96 89
49 47 51 60 60 63 70 71 75 78 83 86 70 57 56 56 56 63 58 52 49 43 42 43 44 44 45 47 47 48 51 56 63 72 75 72 92 94 100 100 95 84 96
41 44 54 55 57 61 68 72 76 80 82 81 78 70 71 70 70 63 62 56 53 47 48 48 47 46 46 46 46 48 51 57 58 57 70 85 85 76 95 93 65 53 48
45 50 54 56 59 68 68 78 86 89 84 92 93 92 85 78 77 75 67 63 63 56 54 54 54 51 49 48 46 48 54 56 58 60 64 86 90 71 70 79 59 53 42
46 46 58 58 58 62 66 81 86 89 88 80 90 95 86 78 84 84 78 62 64 75 69 58 55 50 47 51 53 57 62 62 63 65 63 66 75 71 60 66 66 62 52
56 59 61 62 66 68 66 65 76 75 78 88 88 89 77 82 91 86 69 65 53 56 60 51 48 48 55 60 63 67 70 73 72 74 79 73 62 62 56 52 60 58 57
61 62 60 63 65 63 64 75 81 84 93 94 82 76 89 88 85 80 70 53 54 53 53 53 51 59 72 74 74 77 73 80 71 67 67 72 66 66 76 64 58 52 48
65 65 61 64 63 62 74 80 92 95 96 96 90 88 83 81 80 64 58 57 57 57 57 58 62 75 81 82 81 76 78 74 73 80 78 79 78 89 92 75 60 49 47
64 65 63 65 65 69 71 86 84 97 92 92 92 90 83 76 67 64 68 71 67 63 67 82 84 87 79 75 78 79 77 70 76 79 84 84 83 70 72 64 54 41 49
67 65 66 66 71 77 79 86 87 92 97 92 89 80 70 69 69 82 80 82 77 81 86 88 83 87 82 84 85 80 89 84 76 61 62 79 96 93 81 63 47 37 45
67 68 65 65 80 84 85 78 91 89 87 82 73 65 63 66 68 73 87 92 95 94 92 92 91 87 90 83 76 74 82 75 73 75 81 83 91 91 81 77 75 76 67
62 65 66 69 85 86 84 75 82 83 80 67 65 66 67 69 71 80 91 100 96 98 100 97 91 84 77 85 96 97 90 85 73 66 93 91 82 97 90 86 96 97 91
66 69 70 77 90 94 83 75 83 69 78 74 75 75 76 68 77 83 92 93 93 90 93 94 98 95 97 90 92 94 89 94 88 83 90 83 82 94 95 77 87 76 67
66 68 70 83 89 93 92 75 78 68 82 83 86 84 79 80 79 78 62 96 88 80 76 82 90 94 92 92 92 92 93 86 82 77 72 87 69 74 81 86 62 74 65
68 74 71 84 94 97 96 78 79 75 92 92 91 84 88 86 86 38 34 97 95 85 79 83 89 89 84 79 77 98 86 95 89 81 88 91 74 78 74 70 67 71 77
70 72 72 81 90 97 94 88 80 78 93 100 93 87 87 88 69 22 23 63 100 95 89 93 95 96 96 96 97 96 94 96 97 81 81 95 92 86 80 81 83 80 84